Location: Newark
(34.0131°N, 4.3314°W)
Time: 02:46:44
(UTC+00:00)

SR - Pass Details

Date: 15 October 2019
Orbit: 574 x 882 km, 66.7° (Epoch: 12 November)

Event Time Altitude Azimuth Distance (km) Brightness Sun altitude
Rises 07:50:07 0° 344° (NNW) 3,453 ? 16.7°
Reaches altitude 10° 07:52:58 10° 356° (N) 2,532 ? 17.2°
Maximum altitude 07:58:00 28° 55° (NE) 1,586 ? 18.1°
Drops below altitude 10° 08:03:00 10° 113° (ESE) 2,516 ? 19.1°
Sets 08:05:48 0° 124° (SE) 3,427 ? 19.6°
